Home > Time Zones > World Clock > Weather > China > Wuhan > Past weeks

Flag for China Weather past 2 weeks in Wuhan, Hubei, China

Now
79 °F

Passing clouds.


Feels Like: 82 °F
Forecast: 72 / 83 °F
Wind: 8 mph from Northeast

Location: Wuhan Airport

Current Time: May 28, 2015 at 8:37:54 PM

Latest Report: May 28, 2015 at 8:00 PM


Visibility: 4 mi

Pressure: 29.59 "Hg

Humidity: 84%

Dew point: 73 °F

Location of WuhanLocation

Historic Weather in Wuhan — Graph

°F

Wuhan temperature yesterday

Maximum temperature yesterday: 73 °F (at 3:00 PM)
Minimum temperature yesterday: 70 °F (at 6:00 AM)
Average temperature yesterday: 72 °F

Past Weeks' High & Low Weather Summary

 TemperatureHumidityPressure
High86 °F (May 19, 3:00 PM)100% (May 15, 12:00 AM)29.95 "Hg (May 15, 12:00 AM)
Low64 °F (May 24, 4:00 AM)34% (May 20, 6:00 PM)29.56 "Hg (May 28, 3:00 PM)
Average75 °F77%29.75 "Hg
* Reported May 13 7:00 PM — May 28 7:00 PM, Wuhan, Weather by CustomWeather, © 2015

Note: Actual official high and low records may vary slightly from our data, if they occured in-between our weather recording intervals... More about our weather records

Advertising

Wuhan weather history for previous 24 hours

 ConditionsComfort  
Time TempWeatherWind HumidityBarometerVisibility
7:00 PM
Thu, May 28
82 °FScattered clouds.3 mph74%29.56 "Hg4 mi
6:00 PM82 °FScattered clouds.6 mph74%29.56 "Hg5 mi
5:00 PM84 °FScattered clouds.3 mph66%29.56 "HgN/A
4:00 PM84 °FScattered clouds.1 mph70%29.56 "HgN/A
3:00 PM82 °FScattered clouds.1 mph74%29.56 "HgN/A
2:00 PM82 °FScattered clouds.1 mph74%29.59 "Hg4 mi
1:00 PM82 °FScattered clouds.3 mph70%29.59 "Hg4 mi
12:00 PM81 °FPartly sunny.1 mph79%29.62 "Hg4 mi
11:00 AM79 °FFog.6 mph84%29.65 "Hg3 mi
10:00 AM75 °FFog.3 mph89%29.65 "Hg3 mi
9:00 AM75 °FFog.3 mph89%29.65 "Hg2 mi
8:00 AM73 °FFog.6 mph94%29.65 "Hg1 mi
7:00 AM72 °FFog.No wind94%29.65 "Hg1 mi
6:00 AM72 °FFog.1 mph94%29.62 "Hg1 mi
5:00 AM72 °FFog.6 mph94%29.62 "Hg1 mi
4:00 AM72 °FFog.No wind94%29.62 "Hg1 mi
3:00 AM72 °FFog.No wind94%29.62 "Hg0 mi
2:00 AM70 °FFog.No wind100%29.62 "Hg1 mi
1:00 AM70 °FFog.No wind100%29.62 "Hg1 mi
12:00 AM72 °FFog.No wind100%29.65 "Hg1 mi
11:00 PM
Wed, May 27
73 °FFog.No wind94%29.65 "Hg1 mi
10:00 PM73 °FFog.No wind94%29.65 "Hg1 mi
9:00 PM72 °FFog.No wind100%29.65 "Hg1 mi
8:00 PM73 °FFog.No wind94%29.62 "Hg1 mi
Weather by CustomWeather, © 2015

See weather overviewHow to use our weather pages